EWG6PR LOWW-EDDS

Flight info

Callsign EWG6PR
Flight time N/A
Altitude 30000
Route LUGEM DCT KIRDI DCT EBEDA L173 MAH/N0358F240 L173 DODIL T127 TEKSI TEKSI5A
Aircraft A320/M-SDE3FGHIRWY/LB1

Departure

Time 2026-04-22 18:10
Airport Vienna International Airport (LOWW)

Arrival

Time N/A
Airport Stuttgart Airport (EDDS)
Time Latitude Longitude Altitude Speed Heading
2026-04-22 17:41 48.11808 16.57041 609 ft 0 kts 205°
2026-04-22 17:42 48.11405 16.57186 617 ft 0 kts 206°
2026-04-22 18:04 48.11402 16.57184 609 ft 4 kts 206°
2026-04-22 18:04 48.11373 16.57162 618 ft 4 kts 205°
2026-04-22 18:05 48.11351 16.57149 613 ft 2 kts 195°
2026-04-22 18:05 48.11325 16.57164 614 ft 7 kts 121°
2026-04-22 18:05 48.11297 16.57264 619 ft 6 kts 106°
2026-04-22 18:05 48.11278 16.57301 617 ft 2 kts 173°
2026-04-22 18:06 48.11266 16.57288 613 ft 2 kts 207°
2026-04-22 18:06 48.11253 16.57279 615 ft 3 kts 203°
2026-04-22 18:06 48.11231 16.57268 612 ft 7 kts 199°
2026-04-22 18:06 48.11195 16.57247 609 ft 1 kts 206°
2026-04-22 18:07 48.11186 16.57240 609 ft 5 kts 206°
2026-04-22 18:07 48.11153 16.57215 612 ft 3 kts 207°
2026-04-22 18:07 48.11149 16.57212 613 ft 0 kts 207°
2026-04-22 18:08 48.11126 16.57194 620 ft 7 kts 206°
2026-04-22 18:08 48.11082 16.57162 609 ft 7 kts 207°
2026-04-22 18:09 48.11054 16.57116 610 ft 5 kts 253°
2026-04-22 18:09 48.11062 16.57065 614 ft 6 kts 292°
2026-04-22 18:09 48.11136 16.56856 611 ft 55 kts 295°
2026-04-22 18:09 48.11413 16.56016 609 ft 121 kts 295°
2026-04-22 18:10 48.11848 16.54656 773 ft 156 kts 299°
2026-04-22 18:10 48.12231 16.53189 1607 ft 153 kts 281°
2026-04-22 18:10 48.12097 16.51484 2051 ft 180 kts 264°
2026-04-22 18:10 48.11931 16.50218 2349 ft 193 kts 266°
2026-04-22 18:11 48.11700 16.48165 2873 ft 208 kts 266°
2026-04-22 18:11 48.11422 16.45934 3357 ft 228 kts 264°
2026-04-22 18:11 48.11049 16.43490 3819 ft 254 kts 260°
2026-04-22 18:11 48.10556 16.40843 4543 ft 270 kts 258°
2026-04-22 18:12 48.10032 16.38150 5638 ft 269 kts 258°
2026-04-22 18:12 48.09735 16.35416 6718 ft 264 kts 273°
2026-04-22 18:12 48.09744 16.32647 7623 ft 269 kts 277°
2026-04-22 18:12 48.09835 16.29822 8487 ft 275 kts 277°
2026-04-22 18:13 48.09958 16.26943 9416 ft 278 kts 278°
2026-04-22 18:13 48.10099 16.24038 10326 ft 283 kts 278°
2026-04-22 18:13 48.10268 16.20991 10724 ft 306 kts 278°
2026-04-22 18:13 48.10451 16.17720 11198 ft 323 kts 278°
2026-04-22 18:14 48.10628 16.14332 11937 ft 330 kts 278°
2026-04-22 18:14 48.10794 16.10876 12719 ft 336 kts 277°
2026-04-22 18:14 48.10954 16.07363 13479 ft 342 kts 277°
2026-04-22 18:14 48.11112 16.03788 14241 ft 347 kts 277°
2026-04-22 18:15 48.11270 16.00161 14927 ft 352 kts 277°
2026-04-22 18:15 48.11429 15.96487 15581 ft 356 kts 278°
2026-04-22 18:15 48.11591 15.92768 16265 ft 360 kts 277°
2026-04-22 18:15 48.11744 15.89005 16976 ft 364 kts 277°
2026-04-22 18:16 48.11896 15.85204 17681 ft 368 kts 277°
2026-04-22 18:16 48.12057 15.81354 18357 ft 373 kts 278°
2026-04-22 18:16 48.12222 15.77457 18977 ft 377 kts 278°
2026-04-22 18:16 48.12384 15.73528 19574 ft 380 kts 277°
2026-04-22 18:17 48.12550 15.69553 20161 ft 385 kts 277°
2026-04-22 18:17 48.12720 15.65533 20755 ft 389 kts 277°
2026-04-22 18:17 48.12889 15.61473 21350 ft 392 kts 277°
2026-04-22 18:17 48.13059 15.57372 21934 ft 397 kts 277°
2026-04-22 18:18 48.13228 15.53223 22493 ft 401 kts 277°
2026-04-22 18:18 48.13391 15.49039 23053 ft 405 kts 277°
2026-04-22 18:18 48.13554 15.44807 23624 ft 409 kts 277°
2026-04-22 18:18 48.13717 15.40522 24121 ft 413 kts 276°
2026-04-22 18:19 48.13884 15.36209 24578 ft 417 kts 276°
2026-04-22 18:19 48.14052 15.31842 25032 ft 421 kts 276°
2026-04-22 18:19 48.14220 15.27441 25473 ft 425 kts 276°
2026-04-22 18:19 48.14384 15.23066 25899 ft 429 kts 276°
2026-04-22 18:20 48.14549 15.18585 26327 ft 432 kts 276°
2026-04-22 18:20 48.14687 15.14072 26736 ft 436 kts 275°
2026-04-22 18:20 48.14786 15.09512 27125 ft 440 kts 274°
2026-04-22 18:20 48.14856 15.04922 27574 ft 442 kts 274°
2026-04-22 18:21 48.14911 15.00310 27988 ft 445 kts 273°
2026-04-22 18:21 48.14965 14.95670 28381 ft 447 kts 273°
2026-04-22 18:21 48.15025 14.90986 28767 ft 450 kts 274°
2026-04-22 18:21 48.15091 14.86281 29149 ft 453 kts 274°
2026-04-22 18:22 48.15163 14.81541 29528 ft 456 kts 274°
2026-04-22 18:22 48.15238 14.76766 29886 ft 460 kts 274°
2026-04-22 18:22 48.15311 14.71968 30206 ft 463 kts 273°
2026-04-22 18:23 48.15445 14.62616 30257 ft 436 kts 273°
2026-04-22 18:23 48.15556 14.53655 30260 ft 425 kts 273°
2026-04-22 18:24 48.15702 14.40539 30253 ft 417 kts 274°
2026-04-22 18:25 48.15849 14.27514 30245 ft 417 kts 274°
2026-04-22 18:25 48.15935 14.18828 30238 ft 416 kts 274°
2026-04-22 18:26 48.16048 14.05842 30279 ft 415 kts 274°
2026-04-22 18:26 48.16115 13.97199 30279 ft 414 kts 273°
2026-04-22 18:27 48.16178 13.88569 30274 ft 414 kts 273°
2026-04-22 18:27 48.16230 13.79940 30271 ft 414 kts 273°
2026-04-22 18:28 48.16277 13.71309 30258 ft 414 kts 274°
2026-04-22 18:28 48.16323 13.62684 30260 ft 414 kts 274°
2026-04-22 18:29 48.16362 13.54104 30260 ft 414 kts 273°
2026-04-22 18:29 48.16394 13.45477 30262 ft 414 kts 273°
2026-04-22 18:30 48.16421 13.32525 30251 ft 414 kts 274°
2026-04-22 18:31 48.16433 13.23890 30261 ft 414 kts 274°
2026-04-22 18:31 48.16437 13.15255 30263 ft 414 kts 274°
2026-04-22 18:32 48.16440 13.06628 30268 ft 414 kts 274°
2026-04-22 18:32 48.16441 12.97995 30268 ft 414 kts 273°
2026-04-22 18:32 48.16435 12.93724 29935 ft 408 kts 273°
2026-04-22 18:33 48.16423 12.89498 29450 ft 404 kts 273°
2026-04-22 18:33 48.16407 12.85313 29070 ft 400 kts 273°
2026-04-22 18:33 48.16394 12.81154 28788 ft 399 kts 273°
2026-04-22 18:33 48.16383 12.77010 28508 ft 397 kts 274°
2026-04-22 18:34 48.16374 12.72889 28279 ft 395 kts 273°
2026-04-22 18:34 48.16346 12.64666 28282 ft 395 kts 273°
2026-04-22 18:35 48.16312 12.56440 28283 ft 395 kts 273°
2026-04-22 18:35 48.16275 12.48208 28286 ft 395 kts 273°
2026-04-22 18:36 48.16229 12.39963 28281 ft 395 kts 273°
2026-04-22 18:36 48.16180 12.31733 28286 ft 395 kts 273°
2026-04-22 18:37 48.16114 12.23486 28289 ft 396 kts 273°
2026-04-22 18:37 48.16057 12.16639 28290 ft 396 kts 273°
2026-04-22 18:37 48.16116 12.11145 28098 ft 391 kts 279°
2026-04-22 18:38 48.16377 12.07112 27617 ft 388 kts 279°